Location: Pallagorio
(39.3000°N, 16.9000°E)
Time: 20:23:12
(UTC+00:00)

Cosmos 1844 Rocket - Pass Details

Date: 24 January 2021
Orbit: 826 x 843 km, 71.0° (Epoch: 02 March)

Event Time Altitude Azimuth Distance (km) Brightness Sun altitude
Rises 16:57:34 0° 215° (SW) 3,386 6.7 -10.6°
Reaches altitude 10° 17:00:04 10° 221° (SW) 2,455 6.0 -11.1°
Maximum altitude 17:05:33 52° 297° (WNW) 1,041 3.5 -12.1°
Drops below altitude 10° 17:11:03 10° 13° (NNE) 2,462 4.9 -13.1°
Sets 17:13:35 0° 19° (NNE) 3,398 5.5 -13.6°
